Location: Bismarck
(46.7731°N, 100.8200°W)
Time: 11:30:25
(UTC-05:00)

Amateur Radio Satellites - All Passes

Search period start: 02 October 2014 11:00
Search period end: 03 October 2014 11:00
Location: Bismarck, 46.7731°N, 100.8200°W

Satellite Date Start Highest point End Downlink Frequencies (MHz)
Time Altitude Azimuth
PCSat 02 Oct 11:20:32 11:25:49 52° 309° (NW) 11:31:08 145.825 MHz
HO-68 02 Oct 11:21:48 11:29:01 80° 290° (WNW) 11:36:12 435.675 MHz FM
ZACube-1 02 Oct 11:25:39 11:29:36 28° 94° (E) 11:33:27 437.345 MHz
Oscar 11 02 Oct 11:48:09 11:52:30 78° 285° (WNW) 11:56:48 145.825 FM, Beacon 2401.500 USB
FUNcube-1 02 Oct 12:16:00 12:20:36 88° 104° (ESE) 12:25:04 145.950 - 145.970 MHz USB
UKube-1 02 Oct 12:19:18 12:23:14 33° 293° (WNW) 12:27:09 145.840 MHz, 145.915 MHz
Sapphire 02 Oct 12:40:33 12:44:31 20° 325° (NW) 12:48:30 437.095 MHz 1200 baud AX-25 AFSK
RS-15 02 Oct 12:45:36 12:56:28 63° 243° (WSW) 13:07:46 29.354 - 29.394 USB, Beacon 29.352 USB
Oscar 16 02 Oct 12:49:37 12:52:51 17° 57° (ENE) 12:56:06 437.025 USB, Beacon 2401.1428
ZACube-1 02 Oct 13:01:54 13:06:02 34° 293° (WNW) 13:10:04 437.345 MHz
AO-27 02 Oct 13:04:55 13:05:43 10° 51° (NE) 13:06:31 436.795 MHz FM
PCSat 02 Oct 13:07:30 13:10:32 15° 332° (NNW) 13:13:36 145.825 MHz
HO-68 02 Oct 13:10:51 13:15:41 20° 310° (NW) 13:20:32 435.675 MHz FM
Oscar 11 02 Oct 13:27:33 13:27:55 10° 304° (WNW) 13:28:17 145.825 FM, Beacon 2401.500 USB
Gurwin Techsat 1B 02 Oct 13:37:47 13:38:38 10° 51° (NE) 13:39:29 435.225 FM
JAS-1B 02 Oct 13:37:55 13:44:07 33° 64° (ENE) 13:49:34 435.800 - 435.900 CW/SSB
Oscar 19 02 Oct 13:45:21 13:50:16 45° 68° (ENE) 13:55:12 437.125 CW, 437.150 USB
FUNcube-1 02 Oct 13:54:16 13:56:17 13° 302° (WNW) 13:58:17 145.950 - 145.970 MHz USB
AO-7 02 Oct 13:59:01 14:01:41 12° 33° (NNE) 14:04:21 29.400 - 29.500 MHz
ITAMSAT 1 02 Oct 14:01:05 14:05:30 29° 63° (ENE) 14:09:56 435.822 SSB
Uribyol 2 02 Oct 14:01:27 14:05:58 31° 64° (ENE) 14:10:30 436.500 FM
MaSat-1 02 Oct 14:02:51 14:03:57 11° 38° (NE) 14:05:00 437.345 MHz
TMSAT-1 02 Oct 14:03:44 14:06:07 13° 54° (NE) 14:08:30 436.925 FM
AO-Echo 02 Oct 14:24:29 14:28:59 48° 70° (ENE) 14:33:34 ?
Oscar 16 02 Oct 14:26:22 14:31:34 81° 256° (WSW) 14:36:48 437.025 USB, Beacon 2401.1428
AO-27 02 Oct 14:39:06 14:44:11 60° 71° (ENE) 14:49:19 436.795 MHz FM
Saudisat 1A 02 Oct 14:47:37 14:51:53 51° 121° (ESE) 14:56:10 436.775 MHz
RS-15 02 Oct 15:01:08 15:06:27 15° 265° (W) 15:11:53 29.354 - 29.394 USB, Beacon 29.352 USB
Gurwin Techsat 1B 02 Oct 15:12:20 15:17:31 59° 71° (ENE) 15:22:45 435.225 FM
Oscar 19 02 Oct 15:25:26 15:29:47 27° 266° (W) 15:34:10 437.125 CW, 437.150 USB
JAS-1B 02 Oct 15:27:31 15:34:40 50° 260° (W) 15:40:47 435.800 - 435.900 CW/SSB
MaSat-1 02 Oct 15:37:36 15:41:05 81° 243° (WSW) 15:44:03 437.345 MHz
TMSAT-1 02 Oct 15:39:53 15:45:09 76° 73° (ENE) 15:50:28 436.925 FM
ITAMSAT 1 02 Oct 15:39:54 15:44:49 43° 262° (W) 15:49:47 435.822 SSB
Uribyol 2 02 Oct 15:40:27 15:45:18 40° 262° (W) 15:50:14 436.500 FM
AO-7 02 Oct 15:44:44 15:52:13 40° 57° (ENE) 15:59:43 29.400 - 29.500 MHz
Uosat F 02 Oct 15:48:37 15:52:03 19° 59° (ENE) 15:55:29 435.120 FM
Oscar 10/S400 02 Oct 16:00:06 16:15:23 28° 148° (SSE) 16:36:15 145.825 - 145.975 CW/USB, Beacon 145.810 USB
AO-Echo 02 Oct 16:04:32 16:08:03 21° 268° (W) 16:11:38 ?
Oscar 16 02 Oct 16:10:12 16:11:44 11° 274° (W) 16:13:17 437.025 USB, Beacon 2401.1428
Sapphire 02 Oct 16:15:13 16:16:30 11° 18° (NNE) 16:17:48 437.095 MHz 1200 baud AX-25 AFSK
AO-27 02 Oct 16:20:22 16:24:07 20° 269° (W) 16:27:53 436.795 MHz FM
Saudisat 1A 02 Oct 16:27:56 16:31:42 27° 321° (NW) 16:35:29 436.775 MHz
PCSat 02 Oct 16:39:55 16:42:39 14° 26° (NNE) 16:45:24 145.825 MHz
Gurwin Techsat 1B 02 Oct 16:53:57 16:57:53 21° 269° (W) 17:01:52 435.225 FM
Hamsat 02 Oct 17:13:17 17:15:03 12° 59° (ENE) 17:16:49 145.90 MHz
KITSAT 1 02 Oct 17:17:39 17:25:00 41° 111° (ESE) 17:32:23 435.175 FM
TMSAT-1 02 Oct 17:22:27 17:25:40 16° 271° (W) 17:28:55 436.925 FM
Uosat F 02 Oct 17:25:22 17:30:20 68° 257° (WSW) 17:35:21 435.120 FM
AO-7 02 Oct 17:36:40 17:44:46 57° 257° (WSW) 17:52:55 29.400 - 29.500 MHz
OPAL 02 Oct 17:37:34 17:40:40 16° 91° (E) 17:43:43 ?
Sapphire 02 Oct 17:57:00 18:01:48 30° 43° (NE) 18:06:34 437.095 MHz 1200 baud AX-25 AFSK
JAS-2 02 Oct 17:59:39 18:04:37 47° 68° (ENE) 18:09:58 435.800 - 435.900 CW/SSB, 435.910 FM
PCSat 02 Oct 18:22:16 18:27:30 46° 49° (NE) 18:32:42 145.825 MHz
Hamsat 02 Oct 18:46:03 18:50:23 84° 257° (WSW) 18:54:43 145.90 MHz
KITSAT 1 02 Oct 19:12:14 19:20:10 58° 313° (NW) 19:28:10 435.175 FM
OPAL 02 Oct 19:15:00 19:20:07 73° 290° (WNW) 19:25:07 ?
AO-7 02 Oct 19:38:09 19:39:26 10° 278° (W) 19:40:43 29.400 - 29.500 MHz
Sapphire 02 Oct 19:40:13 19:45:32 55° 243° (WSW) 19:50:48 437.095 MHz 1200 baud AX-25 AFSK
JAS-2 02 Oct 19:45:54 19:50:07 25° 269° (W) 19:54:34 435.800 - 435.900 CW/SSB, 435.910 FM
SO-67 02 Oct 19:46:48 19:50:12 63° 75° (ENE) 19:53:38 435.3500 MHz FM
SO-50 02 Oct 20:05:15 20:09:40 60° 122° (ESE) 20:14:14 436.795 FM
PCSat 02 Oct 20:05:59 20:10:47 33° 249° (WSW) 20:15:34 145.825 MHz
HO-68 02 Oct 20:07:28 20:13:01 25° 53° (NE) 20:18:34 435.675 MHz FM
STRAND 1 02 Oct 20:19:16 20:24:16 48° 100° (E) 20:29:15 ?
UOSAT-12 02 Oct 20:27:20 20:28:16 11° 107° (ESE) 20:29:11 437.025 FM, 437.400 FM
OPAL 02 Oct 20:55:56 20:58:06 13° 309° (NW) 21:00:15 ?
AO-40 02 Oct 20:58:45 02:42:57 37° 182° (S) 07:12:03 Beacon 2401.320
KITSAT 1 02 Oct 21:11:11 21:17:28 24° 339° (NNW) 21:23:46 435.175 FM
Oscar 11 02 Oct 21:11:59 21:14:24 15° 60° (ENE) 21:16:49 145.825 FM, Beacon 2401.500 USB
Saudisat 1A 02 Oct 21:32:40 21:35:55 20° 33° (NNE) 21:39:09 436.775 MHz
FUNcube-1 02 Oct 21:41:12 21:43:33 14° 58° (ENE) 21:45:54 145.950 - 145.970 MHz USB
UKube-1 02 Oct 21:41:26 21:45:21 35° 67° (ENE) 21:49:18 145.840 MHz, 145.915 MHz
SO-50 02 Oct 21:46:47 21:50:36 26° 323° (NW) 21:54:31 436.795 FM
HO-68 02 Oct 21:52:51 22:00:00 80° 254° (WSW) 22:07:13 435.675 MHz FM
STRAND 1 02 Oct 21:59:00 22:03:12 26° 298° (WNW) 22:07:24 ?
ISS 02 Oct 22:02:41 22:04:53 17° 136° (SE) 22:07:06 145.800 FM
UOSAT-12 02 Oct 22:02:55 22:07:34 77° 125° (SE) 22:12:18 437.025 FM, 437.400 FM
ZACube-1 02 Oct 22:24:39 22:28:45 33° 67° (ENE) 22:32:54 437.345 MHz
Oscar 11 02 Oct 22:45:42 22:50:03 70° 258° (WSW) 22:54:25 145.825 FM, Beacon 2401.500 USB
KITSAT 1 02 Oct 23:10:33 23:16:12 20° 9° (N) 23:21:51 435.175 FM
Saudisat 1A 02 Oct 23:11:37 23:16:04 85° 234° (SW) 23:20:29 436.775 MHz
FUNcube-1 02 Oct 23:14:42 23:19:16 83° 257° (WSW) 23:23:56 145.950 - 145.970 MHz USB
UKube-1 02 Oct 23:17:59 23:21:36 26° 265° (W) 23:25:16 145.840 MHz, 145.915 MHz
SO-50 02 Oct 23:32:33 23:32:50 10° 347° (NNW) 23:33:06 436.795 FM
ISS 02 Oct 23:37:52 23:41:12 89° 327° (NNW) 23:44:32 145.800 FM
UOSAT-12 02 Oct 23:44:31 23:48:15 23° 325° (NW) 23:52:01 437.025 FM, 437.400 FM
HO-68 02 Oct 23:44:44 23:48:49 16° 273° (W) 23:52:56 435.675 MHz FM
ZACube-1 03 Oct 00:01:08 00:05:09 30° 265° (W) 00:09:14 437.345 MHz
Saudisat 1A 03 Oct 00:53:38 00:54:55 11° 252° (WSW) 00:56:11 436.775 MHz
KITSAT 1 03 Oct 01:06:49 01:14:16 38° 37° (NE) 01:21:40 435.175 FM
RS-15 03 Oct 01:06:51 01:12:27 16° 96° (E) 01:18:00 29.354 - 29.394 USB, Beacon 29.352 USB
ISS 03 Oct 01:15:03 01:18:10 35° 353° (N) 01:21:16 145.800 FM
Oscar 19 03 Oct 01:56:04 01:58:02 12° 86° (E) 02:00:00 437.125 CW, 437.150 USB
AO-Echo 03 Oct 02:29:57 02:32:21 13° 88° (E) 02:34:46 ?
Oscar 16 03 Oct 02:35:37 02:40:04 29° 94° (E) 02:44:29 437.025 USB, Beacon 2401.1428
AO-27 03 Oct 02:50:18 02:53:42 17° 90° (E) 02:57:05 436.795 MHz FM
ISS 03 Oct 02:52:07 02:55:19 42° 13° (NNE) 02:58:31 145.800 FM
SO-50 03 Oct 02:54:00 02:57:57 25° 36° (NE) 03:01:56 436.795 FM
KITSAT 1 03 Oct 03:02:15 03:10:17 71° 241° (WSW) 03:18:16 435.175 FM
JAS-1B 03 Oct 03:08:14 03:13:25 34° 97° (E) 03:18:56 435.800 - 435.900 CW/SSB
UOSAT-12 03 Oct 03:11:35 03:12:35 11° 15° (NNE) 03:13:35 437.025 FM, 437.400 FM
RS-15 03 Oct 03:11:39 03:22:29 67° 118° (ESE) 03:33:14 29.354 - 29.394 USB, Beacon 29.352 USB
Gurwin Techsat 1B 03 Oct 03:26:32 03:30:14 19° 90° (E) 03:33:55 435.225 FM
Oscar 19 03 Oct 03:32:58 03:38:09 88° 105° (ESE) 03:43:17 437.125 CW, 437.150 USB
ITAMSAT 1 03 Oct 03:49:28 03:54:37 55° 101° (E) 03:59:43 435.822 SSB
Uribyol 2 03 Oct 03:49:47 03:54:58 58° 101° (E) 04:00:06 436.500 FM
TMSAT-1 03 Oct 03:53:24 03:57:40 24° 92° (E) 04:01:55 436.925 FM
AO-Echo 03 Oct 04:06:41 04:11:44 86° 285° (WNW) 04:16:55 ?
Oscar 16 03 Oct 04:14:43 04:19:33 41° 293° (WNW) 04:24:20 437.025 USB, Beacon 2401.1428
AO-27 03 Oct 04:28:31 04:33:45 70° 288° (WNW) 04:38:56 436.795 MHz FM
ISS 03 Oct 04:28:50 04:32:06 54° 212° (SSW) 04:35:21 145.800 FM
SO-50 03 Oct 04:34:10 04:38:58 70° 236° (SW) 04:43:48 436.795 FM
UOSAT-12 03 Oct 04:50:15 04:54:21 28° 38° (NE) 04:58:23 437.025 FM, 437.400 FM
OPAL 03 Oct 04:54:18 04:59:10 42° 65° (ENE) 05:04:03 ?
JAS-1B 03 Oct 04:59:01 05:04:13 38° 295° (WNW) 05:09:43 435.800 - 435.900 CW/SSB
KITSAT 1 03 Oct 05:00:00 05:04:14 15° 261° (W) 05:08:27 435.175 FM
Gurwin Techsat 1B 03 Oct 05:05:24 05:10:41 66° 288° (WNW) 05:15:56 435.225 FM
Oscar 19 03 Oct 05:13:52 05:16:47 16° 304° (WNW) 05:19:43 437.125 CW, 437.150 USB
MaSat-1 03 Oct 05:23:16 05:26:57 22° 107° (ESE) 05:30:29 437.345 MHz
RS-15 03 Oct 05:24:55 05:35:24 48° 325° (NW) 05:45:59 29.354 - 29.394 USB, Beacon 29.352 USB
ITAMSAT 1 03 Oct 05:29:38 05:33:46 24° 299° (WNW) 05:37:52 435.822 SSB
Uribyol 2 03 Oct 05:30:02 05:34:03 23° 300° (WNW) 05:38:03 436.500 FM
Uosat F 03 Oct 05:30:25 05:34:51 30° 95° (E) 05:39:14 435.120 FM
TMSAT-1 03 Oct 05:32:44 05:37:53 51° 291° (WNW) 05:43:00 436.925 FM
AO-7 03 Oct 05:34:42 05:42:31 43° 99° (E) 05:50:18 29.400 - 29.500 MHz
AO-Echo 03 Oct 05:47:15 05:49:48 14° 303° (WNW) 05:52:24 ?
STRAND 1 03 Oct 06:01:50 06:04:42 15° 56° (NE) 06:07:34 ?
AO-27 03 Oct 06:10:20 06:12:20 12° 307° (NW) 06:14:20 436.795 MHz FM
UOSAT-12 03 Oct 06:30:10 06:34:49 57° 238° (WSW) 06:39:22 437.025 FM, 437.400 FM
Hamsat 03 Oct 06:30:24 06:32:39 14° 89° (E) 06:34:54 145.90 MHz
OPAL 03 Oct 06:33:35 06:38:09 30° 263° (W) 06:42:43 ?
Gurwin Techsat 1B 03 Oct 06:47:56 06:49:40 12° 308° (NW) 06:51:23 435.225 FM
JAS-2 03 Oct 06:48:30 06:54:47 39° 96° (E) 07:01:40 435.800 - 435.900 CW/SSB, 435.910 FM
MaSat-1 03 Oct 06:58:27 07:03:07 52° 303° (WNW) 07:07:29 437.345 MHz
Uosat F 03 Oct 07:09:03 07:13:42 39° 293° (WNW) 07:18:21 435.120 FM
AO-7 03 Oct 07:27:32 07:35:26 51° 299° (WNW) 07:43:19 29.400 - 29.500 MHz
STRAND 1 03 Oct 07:38:05 07:43:11 89° 254° (WSW) 07:48:20 ?
RS-15 03 Oct 07:41:50 07:51:09 30° 358° (N) 08:00:38 29.354 - 29.394 USB, Beacon 29.352 USB
Hamsat 03 Oct 08:04:52 08:09:01 59° 287° (WNW) 08:13:07 145.90 MHz
JAS-2 03 Oct 08:33:35 08:39:53 47° 293° (WNW) 08:46:52 435.800 - 435.900 CW/SSB, 435.910 FM
MaSat-1 03 Oct 08:39:23 08:40:25 11° 322° (NW) 08:41:26 437.345 MHz
SO-67 03 Oct 08:40:21 08:43:44 49° 99° (E) 08:47:05 435.3500 MHz FM
Sapphire 03 Oct 08:45:22 08:47:18 12° 102° (ESE) 08:49:14 437.095 MHz 1200 baud AX-25 AFSK
PCSat 03 Oct 09:08:17 09:12:16 21° 107° (ESE) 09:16:15 145.825 MHz
HO-68 03 Oct 09:19:01 09:23:22 17° 87° (E) 09:27:41 435.675 MHz FM
STRAND 1 03 Oct 09:21:07 09:23:07 12° 273° (W) 09:25:09 ?
AO-7 03 Oct 09:22:12 09:26:20 15° 322° (NW) 09:30:28 29.400 - 29.500 MHz
RS-15 03 Oct 09:56:45 10:07:10 44° 32° (NNE) 10:17:52 29.354 - 29.394 USB, Beacon 29.352 USB
SO-67 03 Oct 10:14:47 10:16:21 13° 297° (WNW) 10:17:54 435.3500 MHz FM
JAS-2 03 Oct 10:22:20 10:23:35 11° 312° (NW) 10:24:52 435.800 - 435.900 CW/SSB, 435.910 FM
Sapphire 03 Oct 10:24:24 10:29:47 77° 120° (ESE) 10:35:14 437.095 MHz 1200 baud AX-25 AFSK
Oscar 11 03 Oct 10:31:27 10:34:22 17° 91° (E) 10:37:15 145.825 FM, Beacon 2401.500 USB
